Home   Weather   Wells   Past weeks

Flag for USA Past Weather in Wells, Maine, USA — Yesterday and Last 2 Weeks

Now
58 °F

Passing clouds.


Feels Like: 58 °F
Forecast: 60 / 74 °F
Wind: No wind

Location: Sanford Municipal

Current Time: Aug 17, 2018 at 7:39:27 am

Latest Report: Aug 17, 2018 at 6:56 am


Visibility: 10 mi

Pressure: 30.13 "Hg

Humidity: 97%

Dew Point: 57 °F

Location of WellsLocation

Past Weather in Wells — Graph

°F

Wells Temperature Yesterday

Maximum temperature yesterday: 85 °F (at 12:56 pm)
Minimum temperature yesterday: 57 °F (at 11:56 pm)
Average temperature yesterday: 74 °F

High & Low Weather Summary for the Past Weeks

 TemperatureHumidityPressure
High92 °F (Aug 6, 2:56 pm)100% (Aug 2, 5:33 am)30.17 "Hg (Aug 2, 5:33 am)
Low53 °F (Aug 11, 1:56 am)38% (Aug 16, 4:56 pm)29.69 "Hg (Aug 9, 2:56 pm)
Average72 °F87%29.99 "Hg
* Reported Aug 2 5:33 am — Aug 17 5:56 am, Wells. Weather by CustomWeather, © 2018

Note: Actual official high and low records may vary slightly from our data, if they occured in-between our weather recording intervals... More about our weather records

Advertising

Wells Weather History for the Previous 24 Hours

Scroll right to see more
 ConditionsComfort  
Time TempWeatherWind HumidityBarometerVisibility
5:56 am
Fri, Aug 17
54 °FPassing clouds.3 mph97%30.13 "Hg10 mi
4:56 am53 °FClear.No wind100%30.12 "Hg10 mi
3:56 am55 °FPassing clouds.No wind96%30.12 "Hg10 mi
2:56 am55 °FClear.No wind96%30.12 "Hg10 mi
1:56 am56 °FPassing clouds.3 mph97%30.11 "Hg10 mi
12:56 am57 °FClear.3 mph96%30.11 "Hg10 mi
11:56 pm
Thu, Aug 16
57 °FClear.No wind96%30.10 "Hg10 mi
10:56 pm58 °FClear.3 mph97%30.10 "Hg10 mi
9:56 pm62 °FClear.No wind90%30.08 "Hg10 mi
8:56 pm60 °FClear.No wind96%30.06 "Hg10 mi
7:56 pm65 °FClear.6 mph87%30.04 "Hg10 mi
6:56 pm78 °FSunny.5 mph45%30.02 "Hg10 mi
5:56 pm81 °FSunny.10 mph41%30.01 "Hg10 mi
4:56 pm83 °FSunny.14 mph38%30.00 "Hg10 mi
3:56 pm84 °FSunny.13 mph41%29.99 "Hg10 mi
2:56 pm84 °FSunny.15 mph40%29.98 "Hg10 mi
1:56 pm84 °FSunny.9 mph43%29.98 "Hg10 mi
12:56 pm85 °FScattered clouds.14 mph53%29.98 "Hg5 mi
11:56 am83 °FBroken clouds.8 mph61%29.98 "Hg10 mi
10:56 am82 °FPassing clouds.10 mph60%29.98 "Hg10 mi
9:56 am80 °FSunny.9 mph67%29.98 "Hg10 mi
8:56 am78 °FSunny.8 mph69%29.98 "Hg10 mi
7:56 am75 °FSunny.6 mph76%29.98 "Hg10 mi
Weather by CustomWeather, © 2018

See weather overview